Community: Exchange advice in the forums and read running commentary Resources: Personal running log, calculators, links and other tools for runners News: Running news from around the world Training: Articles and advice about fitness, race training and injury prevention Races/Results: Find upcoming races and past results Home: The Cool Running homepage

Cool Running homepage
events
Maine Event Spotlights
Find Events
Find Results
Race Directors

Race directors: Promote your event
Discover how Cool Running can help you.

Add to our calendar
Submit your race to our event calendar.

Submit race results
Add race results to our results section.

Instant Ads
Pay-Per-Click Ads on Active.com  
   
> Printer-friendly page

Weekly Back Cove 5K

Portland, ME, June 27, 2012

Overall

Courtesy of Maine Running Co.

Back Cove 5k Race Series

2012 Back Cove Weekly 5k Series

Week 4 (2012-06-20)

Weather: 90 degrees, humid

It's appropriate that the official first day of summer would result in one of the hottest WBC5K races in the 10 year history, as temps at race time were above 90 degrees. Email corrections to palmerstu@hotmail.com. There may be several time errors that need adjustment.

Place Time Bib Name
1 00:16:59 326 Jeffrey Sprague
2 00:17:40 85 Erich Neuts
3 00:18:10 182 Tim Stickney
4 00:19:12 299 Nathan Priest
5 00:19:17 272 Stephen Desjardins
6 00:19:40 190 Darrell Rogers
7 00:19:46 220 richard chalmers
8 00:19:49 376 James Fitch
9 00:20:03 254 Michael Cwiklinski
10 00:20:45 1 Blaine Moore
11 00:20:47 377 Andrew Tufts
12 00:20:48 312 Mike Neff
13 00:20:51 300 Sean Case
14 00:21:00 147 Darren Winchenbach
15 00:21:05 33 Hannah Bewsey
16 00:21:07 280 David Manz
17 00:21:12 38 PAUL AINSWORTH
18 00:21:34 371 Erik Born
19 00:21:36 278 Nathan Augustine
20 00:21:38 170 Laura Campbell
21 00:21:55 294 Edward Muennich
22 00:22:03 58 David S Plummer
23 00:22:03 73 Justin Reardon
24 00:22:16 382 Patrick O\'Neil
25 00:22:18 346 Ronald Hunt
26 00:22:34 90 Adam Warfel
27 00:22:39 248 Justin Blake
28 00:22:45 237 tom hague
29 00:22:48 130 Steven Dubois
30 00:22:56 380 Kate Spies
31 00:22:59 372 Steven Pasquine
32 00:23:05 163 John Herrigel
33 00:23:06 20 Parker Swenson
34 00:23:10 211 Tyler Johnson
35 00:23:12 71 Becca Wimert
36 00:23:14 10 Emilio Millan
37 00:23:16 339 Chloe Emerson
38 00:23:28 0 {unknown runner}
39 00:23:41 249 Kristina Blake
40 00:23:45 4 Kevin Ostrander
41 00:23:46 367 Joel Bickford
42 00:23:51 63 Nicholas Duncan
43 00:23:52 189 Thomas Nixon
44 00:23:52 293 Martin Duval
45 00:23:54 0 {unknown runner}
46 00:23:58 0 {unknown runner}
47 00:24:13 289 David McNulty
48 00:24:19 93 Dennis Melton
49 00:24:19 167 Richard Hart
50 00:24:20 239 Stephen Carr
51 00:24:21 241 Sarah Brann
52 00:24:37 181 Elisabeth Lewis
53 00:24:48 177 John Pillsbury
54 00:25:05 274 Liza Kelley
55 00:25:15 253 Roger Brooks
56 00:25:20 366 Ted Loney
57 00:25:20 273 HUGH OSHEA
58 00:25:22 68 Metta Morton
59 00:25:26 183 Thomas Kennedy
60 00:25:31 24 Eric Hager
61 00:25:35 350 angela smith
62 00:25:39 265 crystal mcallaster
63 00:25:48 151 Mark White
64 00:25:50 103 Joe Coppolino
65 00:25:50 145 Travis Kinney
66 00:25:59 283 Douglas Hekl
67 00:26:30 5 Tessa Prince
68 00:26:38 70 Rod Wimert
69 00:26:41 342 Jocelyn King
70 00:26:43 319 Lori Rand
71 00:26:43 117 Tarek Hammour
72 00:26:45 125 THOMAS KNIGHT
73 00:26:47 185 Randall Moore
74 00:26:54 234 Marilyn Bell
75 00:26:59 200 Keith Parker
76 00:27:15 136 Rae Chalmers
77 00:27:33 262 Bruce Webber
78 00:27:35 210 Vivien Toth
79 00:27:45 142 Christine Cyr
80 00:27:57 214 Randall Farr
81 00:27:59 135 Kimberly McInnis
82 00:28:15 331 Fiona Clifford
83 00:28:25 123 Peter Tousignant
84 00:28:36 165 Jake Daniele
85 00:28:36 166 Aimee Cates
86 00:28:46 6 Michael Nee
87 00:28:46 84 Tanya Holbrook
88 00:28:53 118 Julie Rollins
89 00:28:58 104 THERESA KNIGHT
90 00:29:10 137 Tom Mc Laughlin
91 00:29:12 15 William Brewington
92 00:29:21 50 Elizabeth Palmer
93 00:29:25 158 Ashley Fitzpatrick
94 00:29:43 131 Tim Woodward
95 00:29:45 141 Derik Bibb
96 00:29:45 318 John Rand
97 00:29:56 309 Mark Duval
98 00:30:08 119 Danielle Matkoskey
99 00:30:16 44 Fred Kilfoil
100 00:30:25 169 Shannon Hall
101 00:30:29 375 Dylan Carmichael
102 00:30:51 378 Mindy Pomerleau
103 00:31:02 187 Richard Wilson
104 00:31:03 180 Jeffrey Edwards
105 00:31:20 9 Cassandra Chase
106 00:31:29 369 Kristie Carver
107 00:31:53 82 Celine Gauthier
108 00:32:08 94 Robert Foley
109 00:32:15 168 Melissa Babb
110 00:32:34 374 Lauren Mehringer
111 00:32:39 171 Sarah McCance
112 00:32:44 37 Katharine Allerding
113 00:32:53 53 Linda Parise
114 00:33:07 351 angela smith
115 00:33:47 266 Andrew Francis
116 00:34:02 279 Sara Godfrey
117 00:35:30 204 Jim Caldwell
118 00:35:30 206 Rebekah Caldwell
119 00:35:40 0 {unknown runner}
120 00:36:03 19 Terilee Gerry
121 00:36:03 25 Ashley Gerry
122 00:36:34 30 Oliver H. Woshinsky
123 00:37:02 115 Adrienne Wilson
124 00:38:36 245 Garence Anderson
125 00:40:25 238 Traczie Bellinger
126 00:40:26 59 Amanda Paquette
127 00:40:27 62 Andrew White
128 00:40:54 178 Mary Williamson
129 00:43:33 301 nicholas murray
130 00:43:33 315 Patrick Cianciolo
131 00:44:22 373 Jennifer Kieffer
132 00:44:46 161 William Vickerson
133 00:45:45 336 Suzanne Madore
134 00:47:15 160 Jeralyn Logue
135 00:47:16 133 Joanne Majka
136 00:49:30 284 Cheryl Huntington
137 00:49:30 323 Allen Huntington Jr
138 00:49:59 329 Ellen Spahn
139 00:56:43 88 Katherine Hopkins



My ACTIVE
Help
Recent Results
Upcoming Events
Training Log
Forums
Post a Race
Submit Results
Advertise


   

© 2014 Active Network, LLC and/or its affiliates and licensors. All rights reserved.
About Us | Terms of Use | Copyright Policy | Your Privacy Rights | Support
Cool Running Facebook Facebook | Cool Running Twitter Twitter | Newsletter Subscription | News Feed Subscription
Race Directors | Running Events | Race Results | Running Tips | Pace Calculator | Couch to 5K | Running Forum | Running News